Regional Weather Roundup
Issued by NWS

Home | Current Version | Previous Version | Graphics & Text | Print | Product List | Glossary On
Versions: 1 2 3 4 5 6 7 8 9 10 11 12 13 14 15 16 17 18 19 20 21 22 23 24 25 26 27 28 29 30 31 32 33 34 35 36 37 38 39 40 41 42 43 44 45 46 47 48 49 50
000
ASUS43 KFSD 150602
RWRSD

WEATHER ROUNDUP FOR SOUTH DAKOTA
NATIONAL WEATHER SERVICE SIOUX FALLS SD
1200 AM CST FRI DEC 15 2017

NOTE: "FAIR" INDICATES FEW OR NO CLOUDS BELOW 12,000 FEET WITH NO
SIGNIFICANT WEATHER AND/OR OBSTRUCTIONS TO VISIBILITY.


SDZ001>005-009-010-012>017-150700-
NORTHWEST AND NORTH CENTRAL SOUTH DAKOTA

CITY           SKY/WX    TMP DP  RH WIND       PRES   REMARKS
BUFFALO          N/A     22  18  85 W14       29.96F WCI   9
FAITH            N/A     23  19  85 W10       30.03F WCI  12
MOBRIDGE       CLOUDY    34  26  72 W12       29.99F WCI  25
$$

SDZ012>016-024>037-041>051-057-063-072>074-150700-
SOUTHWEST AND SOUTH CENTRAL SOUTH DAKOTA

CITY           SKY/WX    TMP DP  RH WIND       PRES   REMARKS
RAPID CTY ARPT CLOUDY    17  11  77 CALM      30.05F
PIERRE         MOCLDY    32  26  78 W9        30.06F WCI  24
CUSTER         CLOUDY    22  13  68 W5        30.02F WCI  16
ELLSWORTH AFB  CLOUDY    22  14  71 W3        30.04F
PHILIP         CLEAR     25  23  92 W8        30.08F WCI  16
PINE RIDGE     CLOUDY    22  17  81 W3        30.11F
SPEARFISH      FAIR      30  16  55 W12       30.03F WCI  21
WINNER         CLOUDY    33  28  81 W10       30.10F WCI  25
$$

SDZ004>011-016>023-039-040-150700-
NORTHEAST SOUTH DAKOTA

CITY           SKY/WX    TMP DP  RH WIND       PRES   REMARKS
ABERDEEN       CLOUDY    33  27  78 W8        30.00F WCI  26
WATERTOWN      CLOUDY    28  25  88 W13       29.98S WCI  17
BROOKINGS      FLURRIES  27  25  92 W13       30.01F WCI  16
SISSETON         N/A     32  28  85 W13       29.95F WCI  22
$$

SDZ017-020-022-023-036>040-048>070-150700-
SOUTHEAST SOUTH DAKOTA

CITY           SKY/WX    TMP DP  RH WIND       PRES   REMARKS
SIOUX FALLS    CLOUDY    29  25  85 W9        30.06F WCI  20
HURON          CLOUDY    33  26  75 W13       30.04F WCI  24
CHAMBERLAIN    CLOUDY    34  31  90 W8        30.08F WCI  27
MITCHELL       CLOUDY    33  27  78 W14       30.08F WCI  23
YANKTON        CLOUDY    30  27  88 W9        30.10F WCI  22
$$

ABBREVIATIONS USED IN REMARKS
   TC - TEMPERATURE IN CELSIUS
  WCI - WIND CHILL INDEX
   HX - HEAT INDEX
  VSB - VISIBILITY





USA.gov is the U.S. government's official web portal to all federal, state and local government web resources and services.